, WY

(GMT )
South Pass

Weather History for KFWZ - March, 2014

Change the Weather History Date:

Sunday, March 9, 2014

  Actual Average Record
Temperature  
Mean Temperature 34 °F -  
Max Temperature 41 °F - - ()
Min Temperature 28 °F - - ()
Degree Days  
Heating Degree Days 30    
Moisture  
Dew Point 14 °F    
Average Humidity 45    
Maximum Humidity 69    
Minimum Humidity 20    
Precipitation  
Precipitation 0.00 in - - ()
Sea Level Pressure  
Sea Level Pressure 30.13 in    
Wind  
Wind Speed 17 mph (SW)    
Max Wind Speed 29 mph    
Max Gust Speed 44 mph    
Visibility 10 miles    
Events      
Averages and records for this station are not official NWS values.
T = Trace of Precipitation, MM = Missing Value Source: NWS Daily Summary

Daily Weather History Graph

Daily Weather History Graph

Search for Another Location

Airport or City:

Trip Planner

Search our weather history database for the weather conditions in past years. The results will help you decide how hot, cold, wet, or windy it might be!

Date:

Astronomy

Mar. 09, 2014 Rise Set
Actual Time 7:37 AM MDT 7:14 PM MDT
Civil Twilight 7:09 AM MDT 7:42 PM MDT
Nautical Twilight 6:36 AM MDT 8:15 PM MDT
Astronomical Twilight 6:03 AM MDT 8:48 PM MDT
Moon 1:04 PM MDT (3/9) 3:10 AM MDT (3/9)
Length of Visible Light 12h 33m
Length of Day
11h 37m
First Quarter, 61% of the Moon is Illuminated
Mar 9
First Quarter
Mar 16
Full
Mar 23
Last Quarter
Mar 30
New
Apr 7
First Quarter

Hourly Weather History & Observations

Time (MDT) Temp. Windchill Dew Point Humidity Pressure Visibility Wind Dir Wind Speed Gust Speed Precip Events Conditions
12:15 AM 35.6 °F 22.7 °F 6.8 °F 30% 30.13 in 5.0 mi WSW 28.8 mph 35.7 mph N/A   Haze
12:35 AM 35.6 °F 22.7 °F 8.6 °F 33% 30.14 in 5.0 mi WSW 28.8 mph 39.1 mph N/A   Haze
12:55 AM 33.8 °F 21.6 °F 8.6 °F 35% 30.14 in 7.0 mi WSW 23.0 mph 35.7 mph N/A   Clear
1:15 AM 33.8 °F 21.0 °F 8.6 °F 35% 30.13 in 7.0 mi West 25.3 mph 35.7 mph N/A   Clear
1:35 AM 33.8 °F 21.0 °F 5.0 °F 30% 30.13 in 7.0 mi WSW 25.3 mph 33.4 mph N/A   Clear
1:55 AM 35.6 °F 22.7 °F 1.4 °F 24% 30.12 in 7.0 mi West 28.8 mph 43.7 mph N/A   Clear
3:15 AM 35.6 °F 23.7 °F 1.4 °F 24% 30.11 in 7.0 mi West 24.2 mph 36.8 mph N/A   Clear
3:35 AM 35.6 °F 24.0 °F 1.4 °F 24% 30.12 in 7.0 mi WSW 23.0 mph 36.8 mph N/A   Clear
3:55 AM 35.6 °F 23.2 °F 1.4 °F 24% 30.12 in 10.0 mi WSW 26.5 mph 36.8 mph N/A   Clear
4:15 AM 37.4 °F 25.9 °F 1.4 °F 22% 30.10 in 10.0 mi WSW 25.3 mph 39.1 mph N/A   Clear
4:35 AM 35.6 °F 23.4 °F 1.4 °F 24% 30.11 in 10.0 mi WSW 25.3 mph 33.4 mph N/A   Clear
4:55 AM 35.6 °F 25.9 °F -0.4 °F 22% 30.11 in 10.0 mi West 16.1 mph 27.6 mph N/A   Clear
5:15 AM 35.6 °F 28.0 °F -2.2 °F 20% 30.12 in 10.0 mi West 10.4 mph 19.6 mph N/A   Clear
5:35 AM 35.6 °F 29.9 °F -0.4 °F 22% 30.13 in 10.0 mi West 6.9 mph 19.6 mph N/A   Clear
5:55 AM 33.8 °F 30.8 °F -0.4 °F 23% 30.14 in 10.0 mi East 3.5 mph - N/A   Clear
6:15 AM 33.8 °F - 1.4 °F 25% 30.14 in 10.0 mi Calm Calm - N/A   Clear
6:35 AM 32.0 °F 26.4 °F 5.0 °F 32% 30.14 in 10.0 mi West 5.8 mph - N/A   Clear
6:55 AM 32.0 °F 28.7 °F 5.0 °F 32% 30.14 in 10.0 mi West 3.5 mph - N/A   Clear
7:15 AM 32.0 °F 24.2 °F 5.0 °F 32% 30.15 in 10.0 mi SW 9.2 mph - N/A   Clear
7:35 AM 32.0 °F 26.4 °F 10.4 °F 41% 30.14 in 10.0 mi South 5.8 mph - N/A   Clear
7:55 AM 30.2 °F 26.7 °F 12.2 °F 47% 30.13 in 10.0 mi SSW 3.5 mph 9.2 mph N/A   Clear
8:15 AM 32.0 °F 26.4 °F 6.8 °F 35% 30.14 in 10.0 mi SSW 5.8 mph - N/A   Clear
8:35 AM 30.2 °F 24.3 °F 14.0 °F 51% 30.14 in 10.0 mi SSW 5.8 mph - N/A   Clear
8:55 AM 30.2 °F 25.4 °F 14.0 °F 51% 30.15 in 10.0 mi SSW 4.6 mph - N/A   Clear
9:15 AM 32.0 °F 24.8 °F 12.2 °F 44% 30.16 in 10.0 mi SW 8.1 mph - N/A   Clear
9:35 AM 30.2 °F 20.8 °F 15.8 °F 55% 30.17 in 10.0 mi WSW 11.5 mph - N/A   Clear
9:55 AM 32.0 °F 23.6 °F 17.6 °F 55% 30.18 in 10.0 mi SW 10.4 mph - N/A   Clear
10:15 AM 30.2 °F 20.8 °F 17.6 °F 60% 30.19 in 10.0 mi SW 11.5 mph - N/A   Clear
10:35 AM 32.0 °F 23.0 °F 15.8 °F 51% 30.19 in 10.0 mi SW 11.5 mph - N/A   Clear
10:55 AM 28.4 °F 20.4 °F 17.6 °F 64% 30.18 in 10.0 mi SSW 8.1 mph - N/A   Clear
11:15 AM 28.4 °F 21.2 °F 19.4 °F 69% 30.18 in 10.0 mi SSW 6.9 mph - N/A   Clear
11:35 AM 28.4 °F 23.3 °F 17.6 °F 64% 30.17 in 10.0 mi SSW 4.6 mph 20.7 mph N/A   Clear
11:55 AM 28.4 °F 19.1 °F 19.4 °F 69% 30.16 in 10.0 mi South 10.4 mph - N/A   Clear
12:15 PM 33.8 °F 20.8 °F 14.0 °F 44% 30.16 in 10.0 mi WSW 26.5 mph 35.7 mph N/A   Clear
12:35 PM 33.8 °F 22.8 °F 15.8 °F 48% 30.18 in 10.0 mi WSW 18.4 mph - N/A   Scattered Clouds
12:55 PM 33.8 °F 25.3 °F 17.6 °F 52% 30.19 in 10.0 mi WSW 11.5 mph - N/A   Scattered Clouds
1:15 PM 33.8 °F 25.8 °F 21.2 °F 60% 30.19 in 10.0 mi SW 10.4 mph - N/A   Clear
1:35 PM 33.8 °F 26.4 °F 21.2 °F 60% 30.18 in 10.0 mi SW 9.2 mph - N/A   Clear
1:55 PM 35.6 °F 30.7 °F 23.0 °F 60% 30.18 in 10.0 mi SSW 5.8 mph - N/A   Clear
2:15 PM 35.6 °F 30.7 °F 23.0 °F 60% 30.16 in 10.0 mi SSW 5.8 mph - N/A   Clear
2:35 PM 35.6 °F 31.7 °F 23.0 °F 60% 30.16 in 10.0 mi SSW 4.6 mph - N/A   Clear
2:55 PM 37.4 °F 32.8 °F 24.8 °F 60% 30.14 in 10.0 mi South 5.8 mph - N/A   Clear
3:15 PM 37.4 °F 31.4 °F 24.8 °F 60% 30.14 in 10.0 mi South 8.1 mph - N/A   Clear
3:35 PM 37.4 °F 32.1 °F 26.6 °F 65% 30.14 in 10.0 mi South 6.9 mph 16.1 mph N/A   Clear
3:55 PM 37.4 °F 33.8 °F 24.8 °F 60% 30.14 in 10.0 mi South 4.6 mph - N/A   Clear
4:15 PM 37.4 °F 34.9 °F 24.8 °F 60% 30.14 in 10.0 mi South 3.5 mph - N/A   Scattered Clouds
4:35 PM 37.4 °F 34.9 °F 23.0 °F 56% 30.13 in 10.0 mi SSW 3.5 mph - N/A   Scattered Clouds
4:55 PM 37.4 °F 34.9 °F 23.0 °F 56% 30.14 in 10.0 mi SW 3.5 mph - N/A   Scattered Clouds
5:15 PM 41.0 °F 34.7 °F 17.6 °F 39% 30.13 in 10.0 mi WSW 10.4 mph 18.4 mph N/A   Scattered Clouds
5:35 PM 39.2 °F 32.5 °F 17.6 °F 42% 30.13 in 10.0 mi WSW 10.4 mph - N/A   Clear
5:55 PM 39.2 °F 32.5 °F 17.6 °F 42% 30.13 in 10.0 mi WSW 10.4 mph - N/A   Clear
6:15 PM 37.4 °F 31.4 °F 17.6 °F 45% 30.14 in 10.0 mi WSW 8.1 mph - N/A   Clear
6:35 PM 37.4 °F 30.3 °F 15.8 °F 41% 30.14 in 10.0 mi WSW 10.4 mph - N/A   Clear
6:55 PM 39.2 °F 30.8 °F 14.0 °F 36% 30.12 in 10.0 mi WSW 15.0 mph 18.4 mph N/A   Clear
7:15 PM 39.2 °F 28.7 °F 14.0 °F 36% 30.10 in 10.0 mi WSW 23.0 mph 29.9 mph N/A   Clear
7:35 PM 37.4 °F 25.2 °F 14.0 °F 38% 30.09 in 10.0 mi WSW 28.8 mph 34.5 mph N/A   Clear
7:55 PM 37.4 °F 25.9 °F 14.0 °F 38% 30.09 in 10.0 mi WSW 25.3 mph 33.4 mph N/A   Mostly Cloudy
8:15 PM 37.4 °F 26.1 °F 15.8 °F 41% 30.10 in 10.0 mi WSW 24.2 mph 31.1 mph N/A   Scattered Clouds
8:35 PM 37.4 °F 26.1 °F 17.6 °F 45% 30.09 in 10.0 mi WSW 24.2 mph 31.1 mph N/A   Clear
8:55 PM 37.4 °F 26.4 °F 17.6 °F 45% 30.09 in 10.0 mi WSW 23.0 mph 33.4 mph N/A   Scattered Clouds
9:15 PM 37.4 °F 26.6 °F 17.6 °F 45% 30.09 in 10.0 mi WSW 21.9 mph 28.8 mph N/A   Mostly Cloudy
9:35 PM 37.4 °F 26.1 °F 17.6 °F 45% 30.08 in 10.0 mi WSW 24.2 mph 34.5 mph N/A   Mostly Cloudy
9:55 PM 35.6 °F 24.8 °F 19.4 °F 52% 30.09 in 10.0 mi WSW 19.6 mph 29.9 mph N/A   Scattered Clouds
10:15 PM 35.6 °F 28.0 °F 19.4 °F 52% 30.12 in 10.0 mi West 10.4 mph 18.4 mph N/A   Clear
10:35 PM 35.6 °F 27.1 °F 19.4 °F 52% 30.11 in 10.0 mi WSW 12.7 mph - N/A   Clear
10:55 PM 35.6 °F 26.2 °F 19.4 °F 52% 30.10 in 10.0 mi WSW 15.0 mph - N/A   Clear
11:15 PM 33.8 °F 24.3 °F 19.4 °F 56% 30.10 in 10.0 mi WSW 13.8 mph - N/A   Clear
11:35 PM 33.8 °F 24.8 °F 19.4 °F 56% 30.09 in 10.0 mi West 12.7 mph - N/A   Clear
11:55 PM 35.6 °F 27.5 °F 19.4 °F 52% 30.09 in 10.0 mi WSW 11.5 mph 20.7 mph N/A   Clear
12:15 AM 35.6 °F 28.6 °F 21.2 °F 56% 30.08 in 10.0 mi West 9.2 mph - N/A   Clear
12:35 AM 35.6 °F 29.9 °F 21.2 °F 56% 30.07 in 10.0 mi West 6.9 mph - N/A   Clear
12:55 AM 35.6 °F 28.6 °F 23.0 °F 60% 30.06 in 10.0 mi West 9.2 mph - N/A   Clear